Location: Alvis C Story Elementary School
(33.0968°N, 96.6364°W)
Time: 19:03:56
(UTC+00:00)

H-2A R/B (2) - Pass Details

Date: 04 July 2022
Orbit: 428 x 34396 km, 28.9° (Epoch: 07 August)

Event Time Altitude Azimuth Distance (km) Brightness Sun altitude
Rises 06:14:39 0° 117° (ESE) 39,351 10.4 -33.9°
Reaches altitude 10° 07:31:55 10° 119° (ESE) 39,009 10.5 -32.2°
Maximum altitude 10:33:33 29° 116° (ESE) 22,880 9.8 -9.6°
Drops below altitude 10° 11:34:01 10° 88° (E) 12,210 9.5 1.3°
Sets 11:42:06 0° 80° (E) 11,043 9.8 2.8°
